DECAYED

CZ-6A DEB, 60670 (Decayed)

Orbit data source: Space-Track

CZ-6A DEB, 60670 was space debris in LEO originally from a launch on Tue, 06 Aug 2024 UTC launched from the Taiyaun Space Center, China (TSC). Debris objects in space refer to the collection of defunct objects orbiting the Earth. Examples of debris include non-operational satellites, rocket bodies, and fragments generated from explosions, collisions, or faulty payload assembly.

Not visible in the next 10 days
Identifier
60670, 2024-140BX
Orbit
Decayed
Country
Flag of CNCN / PRC
Related business
Manufacturer
SAST
Mission
Decayed spacecraft
Bus & Motor
Unknown
Mass
Unknown
Launch date (UTC)
2024-08-06 (2 years ago)
Launch vehicle
Unknown
Launch site
Taiyaun Space Center, China (TSC)
Object type
Payload
Rocket body
Debris
Shape & HBR
Unknown shape, 0.1 m
Radar Cross Section
Medium (>0.1 m² and <1 m²)

Expand to show TLE details & history
Last TLE update: 10 months ago

TLE from 10 months ago
0 CZ-6A DEB
1 60670U 24140BX  25240.88882951  .09074709 -98122-6  39734-2 0  9995
2 60670  89.2542 315.4686 0021680 302.5901  57.3306 16.21911566 58297
Epoch: 2025-08-28T21:19Z
TLE epoch observation values (Epoch: 2025-08-28T21:19:54.869Z)
Latitude
-0.00003°
Longitude
18.14462°
Altitude
210.009 km
Speed
7.785 km/s
True Right ascension
21h 01m 52s
True Declination
0° 00' 00"
Sunlit
Object was in full shadow at epoch
Visualization orbit readout
Latitude
Unknown
Longitude
Unknown
Altitude
Unknown
Speed
Unknown
Apparent Right ascension
Unknown
Apparent Declination
Unknown
Sunlit
N/A
Visualization observer readout
Local Sidereal Time
07:22:54
Azimuth
Unknown
Elevation
Unknown
Doppler factor
Unknown
Orbital elements
Apogee altitude
225.319 km
Perigee altitude
196.748 km
Semi-major axis
6,589.171 km
Eccentricity
0.00217
Inclination
89.2542°
RAAN
315.4686°
Arg. of periapsis
302.5901°
True anomaly
57.54004°
Mean anomaly
57.3306°
Eccentric anomaly
57.43529°
Mean motion
4.05786 °/min
Orbital period
88.72 mins
BSTAR
0.0039734
Loading maneuver chart data...
Computing Atmospheric mass density...
Loading historical data...
Loading historical data...
Loading historical data...
Loading historical data...
Loading historical data...
Loading historical data...
Loading historical data...

Documentation

Showing up to 5 results
|